Find YAM-8

NORAD ID: 63254 Int'l Des: 2025-052 Owner: LOFT Country: US operational
LEOCIRCULARRETROGRADESSO

Live Position

Loading 3D Globe...

About YAM-8

Description loading...

Upcoming Passes

Passes for default location (London). Set your location on the main map for personalized predictions.

Altitude History

Loading altitude history...

Two-Line Element Set

1 63254U 25052AW 26104.62031840 .00002718 00000-0 16500-3 0 9994
2 63254 97.6997 5.6643 0003922 76.3332 283.8334 15.11376108 59663
Epoch: Apr 14, 2026 • Age: 12 hours

Current Status

Altitude 534.7 km
Velocity 7.60 km/s
Sub-Earth Point 8.10°N, 57.54°W
Launch Date Mar 15, 2025
Age 1 years
Type other

Technical Details

Classification Payload
Mass 150.00 kg
Dry Mass 140.00 kg
Total Mass 150.00 kg
Length 1.30 m
Diameter 1.00 m
Span 5.00 m
Shape Trapezoid+2 pan
Manufacturer ADST
Bus Type ARROW
Phase Status In Orbit
Owner/State LOFT/US

Most Searched